[[{"header":{"parameterUnit":"m.s-1","parameterCategory":2,"la1":30.2991,"la2":30.254,"lo1":-89.0895,"lo2":-89.0444,"dy":0.0017,"dx":0.0017,"nx":28,"ny":28,"refTime":"2024-08-15T03:00:00:Z","depth":"0","parameterNumber":2,"parameterNumberName":"U-component_of_CURRENTS"},"data":[0,0,0,0,0,0,0,0,0,0,0,0,0,0,0,0,0,0,0,0,0,0,0,0,0,0,0,0,0,0,0,0,0,0,0,0,0,0,0,0,0,0,0,0,0,0,0,0,0,0,0,0,0,0,0,0,0,0,0.314,0.314,0,0.3142,0.3141,0.3141,0.3113,0.3113,0.3112,0.3112,0.3068,0.3067,0.3066,0,0,0,0,0,0,0,0,0,0,0,0,0,0.3076,0.3077,0.314,0.3141,0.3141,0.3142,0.3141,0.314,0.3113,0.3113,0.3112,0.3112,0.3068,0.3067,0.3065,0,0,0,0,0,0,0,0,0,0,0,0,0,0.3087,0.3078,0.314,0.3132,0.3132,0.3142,0.3141,0.314,0.3113,0.3113,0.3112,0.3112,0.3068,0.3067,0.3065,0.3059,0,0,0.306,0.306,0,0,0,0,0,0,0,0,0.3087,0.3089,0.3133,0.3133,0.3133,0.3133,0.3103,0.3113,0.3113,0.3113,0.3112,0.3112,0.309,0.3086,0.3078,0.3057,0.3055,0.306,0.3059,0.3059,0.3058,0,0,0,0,0,0,0,0.3086,0.3088,0.3134,0.3134,0.3134,0.3117,0.3118,0.3104,0.3096,0.3113,0.3113,0.3124,0.3088,0.308,0.3077,0.3055,0.306,0.3059,0.3058,0.3057,0.3189,0.3193,0,0,0,0,0,0,0.3102,0.3088,0.3134,0.3134,0.3117,0.3119,0.312,0.3127,0.3097,0.3095,0.3124,0.3123,0.3082,0.3079,0.3075,0.3186,0.3059,0.3057,0.3056,0.3185,0.319,0.3195,0,0,0,0,0,0,0.31,0.3106,0.3134,0.3117,0.312,0.3121,0.313,0.3128,0.3132,0.3108,0.3103,0.3133,0.3082,0.3077,0.3096,0.318,0.3056,0.3055,0.3179,0.3186,0.3193,0.3331,0,0,0,0,0,0,0.3098,0.3105,0.3112,0.3118,0.3122,0.3162,0.3131,0.3128,0.3142,0.314,0.3114,0.3109,0.3082,0.3099,0.3094,0.3175,0.3054,0.3174,0.3183,0.319,0.3321,0.3342,0.336,0,0,0,0,0,0.3096,0.3116,0.3112,0.3118,0.3132,0.3164,0.3164,0.3159,0.3143,0.3158,0.3149,0.311,0.3151,0.3099,0.3093,0.3176,0.317,0.318,0.319,0.3313,0.3338,0.3359,0,0,0,0,0,0,0.308,0.3116,0.3111,0.3136,0.3158,0.3162,0.3169,0.3171,0.3172,0.3166,0.3135,0.3131,0.3199,0.3165,0.3109,0.3248,0.3167,0.3176,0.3263,0.3286,0.3305,0.3369,0.3052,0,0,0,0,0,0.3084,0.3105,0.3137,0.3149,0.3164,0.3167,0.3176,0.3182,0.3189,0.3188,0.3179,0.3188,0.3235,0.3237,0.3259,0.3297,0.3302,0.3361,0.3381,0.3397,0.3451,0.352,0.355,0.3228,0.3228,0.3228,0,0,0.3075,0.3098,0.3106,0.3148,0.3151,0.3217,0.317,0.3197,0.327,0.3183,0.3255,0.325,0.3265,0.3338,0.3365,0.3313,0.349,0.341,0.3423,0.3469,0.3533,0.3565,0.3592,0.3235,0.3234,0.3232,0,0,0.3102,0.3093,0.3142,0.3171,0.3211,0.3236,0.3255,0.3282,0.3309,0.3359,0.3362,0.3416,0.3419,0.3488,0.3515,0.3655,0.36,0.3651,0.3782,0.3847,0.3874,0.3897,0.3927,0.3952,0.3647,0.3647,0.3647,0,0.3099,0.3162,0.3158,0.3223,0.3263,0.3261,0.3342,0.3383,0.3419,0.3459,0.3402,0.3511,0.3517,0.3671,0.3738,0.3705,0.3703,0.368,0.3871,0.3895,0.3916,0.3941,0.3967,0.3655,0.3654,0.3653,0.3653,0,0.3186,0.3232,0.3256,0.3353,0.3398,0.3449,0.3523,0.3572,0.3585,0.3624,0.3738,0.3746,0.3808,0.384,0.383,0.4016,0.3952,0.3892,0.3804,0.3957,0.3973,0.3998,0.3666,0.3664,0.3661,0.3659,0,0,0.322,0.3306,0.3323,0.3359,0.3469,0.3502,0.3646,0.3767,0.3827,0.3883,0.3976,0.4107,0.4082,0.412,0.412,0.4199,0.4353,0.4119,0.4119,0.4137,0.4469,0.4322,0.4333,0.43,0.4305,0.431,0.441,0,0.3302,0.3422,0.347,0.3585,0.3648,0.3697,0.3807,0.3908,0.3961,0.404,0.4125,0.419,0.4199,0.4197,0.4306,0.434,0.4428,0.4331,0.4332,0.4333,0.4173,0.4361,0.4209,0.4278,0.4434,0.4438,0.4441,0,0.3415,0.347,0.3588,0.3667,0.3697,0.3767,0.3895,0.3989,0.4132,0.4162,0.4277,0.4298,0.4489,0.4408,0.4615,0.4536,0.4551,0.4562,0.4563,0.4406,0.4234,0.4157,0.4315,0.4171,0.4477,0.4475,0.4472,0,0.3439,0.3563,0.364,0.3671,0.3771,0.3823,0.3886,0.4018,0.4075,0.4229,0.4249,0.4455,0.4496,0.4621,0.4688,0.4645,0.4848,0.4764,0.4659,0.4645,0.4515,0.448,0.4532,0.4919,0.4918,0.4918,0.4918,0,0.3519,0.3571,0.363,0.3654,0.3707,0.3797,0.387,0.3947,0.4067,0.4124,0.4284,0.435,0.4545,0.4664,0.474,0.4793,0.4894,0.4752,0.4695,0.4554,0.4523,0.4385,0.4319,0.4922,0.4921,0.492,0.492,0,0.3508,0.3571,0.3615,0.369,0.3702,0.3722,0.3802,0.3842,0.3971,0.4048,0.4093,0.4296,0.4452,0.462,0.4793,0.4798,0.4745,0.4861,0.4671,0.4591,0.4313,0.426,0.4172,0.4051,0.4776,0.4774,0.4772,0,0.3511,0.3532,0.3569,0.356,0.3572,0.3619,0.3633,0.3765,0.3803,0.3996,0.4009,0.4201,0.4307,0.453,0.4631,0.4757,0.4633,0.4613,0.4528,0.4341,0.4242,0.4098,0.3994,0.441,0.4405,0.4401,0.4398,0,0.3451,0.3447,0.3447,0.3432,0.3427,0.3446,0.3482,0.3507,0.3657,0.3738,0.3842,0.3952,0.4181,0.4257,0.4412,0.4471,0.4376,0.4525,0.4412,0.406,0.3834,0.3671,0.4273,0.4362,0.4365,0.4368,0.437,0.4372,0.3342,0.3304,0.3281,0.3254,0.3251,0.3235,0.3216,0.3285,0.3327,0.3429,0.363,0.3753,0.3938,0.4147,0.4159,0.4061,0.4089,0.3959,0.3943,0.3839,0.3634,0.4136,0.409,0.4092,0.4094,0.4095,0.4097,0,0.3162,0.3135,0.3106,0.3053,0.3,0.3061,0.3065,0.3041,0.3035,0.3228,0.3342,0.3516,0.3583,0.3695,0.3688,0.3536,0.342,0.3433,0.3243,0.3194,0.3728,0.3621,0.3369,0.3369,0.3369,0.337,0.337,0.337,0.3057,0.2956,0.2944,0.2801,0.2778,0.2668,0.2649,0.2644,0.2743,0.2828,0.2937,0.3118,0.3296,0.3349,0.3207,0.3138,0.2902,0.2771,0.2758,0.3171,0.3219,0.3265,0.315,0.2804,0.2804,0.212,0.2115,0.2111]},{"header":{"parameterUnit":"m.s-1","parameterCategory":2,"la1":30.2991,"la2":30.254,"lo1":-89.0895,"lo2":-89.0444,"dy":0.0017,"dx":0.0017,"nx":28,"ny":28,"refTime":"2024-08-15T03:00:00:Z","depth":"0","parameterNumber":3,"parameterNumberName":"V-component_of_CURRENTS"},"data":[0,0,0,0,0,0,0,0,0,0,0,0,0,0,0,0,0,0,0,0,0,0,0,0,0,0,0,0,0,0,0,0,0,0,0,0,0,0,0,0,0,0,0,0,0,0,0,0,0,0,0,0,0,0,0,0,0,0,-0.0021,-0.0022,0,-0.002,-0.002,-0.0019,-0.0026,-0.0026,-0.0027,-0.0027,-0.003,-0.003,-0.0029,0,0,0,0,0,0,0,0,0,0,0,0,0,0.0001,0.0001,-0.0021,-0.0022,-0.0022,-0.002,-0.002,-0.0019,-0.0026,-0.0026,-0.0027,-0.0027,-0.003,-0.003,-0.0029,0,0,0,0,0,0,0,0,0,0,0,0,0,-0.0002,0.0,-0.0021,-0.0026,-0.0027,-0.002,-0.002,-0.0019,-0.0026,-0.0026,-0.0027,-0.0028,-0.003,-0.003,-0.0029,-0.0015,0,0,-0.0028,-0.0028,0,0,0,0,0,0,0,0,-0.0002,-0.0003,-0.0025,-0.0026,-0.0027,-0.0026,-0.0013,-0.0019,-0.0026,-0.0024,-0.0027,-0.0028,-0.003,-0.0029,-0.0025,-0.0015,-0.0015,-0.0028,-0.0028,-0.0027,-0.0027,0,0,0,0,0,0,0,-0.0002,-0.0003,-0.0019,-0.0026,-0.0026,-0.0018,-0.0019,-0.0014,-0.0022,-0.0024,-0.0025,-0.0028,-0.003,-0.0025,-0.0025,-0.0015,-0.0028,-0.0027,-0.0027,-0.0027,0.0108,0.0111,0,0,0,0,0,0,-0.0007,-0.0003,-0.0019,-0.0019,-0.0018,-0.0018,-0.0019,-0.0024,-0.0022,-0.0023,-0.0028,-0.0029,-0.0026,-0.0025,-0.0025,0.0092,-0.0027,-0.0027,-0.0027,0.0105,0.0109,0.0112,0,0,0,0,0,0,-0.0007,-0.0009,-0.0019,-0.0012,-0.0013,-0.0019,-0.0023,-0.0023,-0.002,-0.0025,-0.0026,-0.0024,-0.0026,-0.0026,0.0016,0.0087,-0.0027,-0.0026,0.0101,0.0106,0.011,0.0261,0,0,0,0,0,0,-0.0006,-0.0009,-0.0011,-0.0013,-0.0014,0.0001,-0.0022,-0.0023,-0.0022,-0.0023,-0.0022,-0.0023,-0.0026,0.0016,0.0017,0.0086,-0.0026,0.0096,0.0103,0.0109,0.0252,0.027,0.0286,0,0,0,0,0,-0.0005,0.0014,-0.0011,-0.0013,-0.0018,0.0002,0.0004,-0.0001,-0.0021,-0.0004,0.0011,-0.0023,0.0056,0.0019,0.0019,0.009,0.0093,0.0101,0.0108,0.0244,0.0267,0.0286,0,0,0,0,0,0,0.0034,0.0014,-0.0013,-0.0,-0.0001,0.0,0.0016,0.0001,0.0023,0.0027,0.0011,0.0014,0.008,0.0061,0.002,0.0149,0.0072,0.008,0.0176,0.0197,0.0214,0.0256,-0.0026,0,0,0,0,0,0.0035,0.0046,0.0019,0.0038,0.0029,0.0016,0.0021,0.0019,0.0034,0.0041,0.0043,0.0064,0.0111,0.0132,0.0154,0.0216,0.0179,0.0265,0.0282,0.0297,0.0333,0.0322,0.0341,0.0137,0.0137,0.0137,0,0,0.0059,0.005,0.0056,0.0047,0.0042,0.0088,0.002,0.0042,0.0111,0.0039,0.0127,0.0114,0.0138,0.0224,0.0252,0.0218,0.0336,0.0307,0.0319,0.0348,0.0332,0.0351,0.0369,0.0142,0.0141,0.014,0,0,0.0149,0.0097,0.0144,0.0144,0.0141,0.0141,0.0145,0.0143,0.0165,0.0227,0.0217,0.0252,0.0293,0.0347,0.0378,0.0501,0.0421,0.0497,0.0629,0.0618,0.0634,0.0648,0.0621,0.0631,0.0514,0.0514,0.0515,0,0.0184,0.0232,0.0165,0.0216,0.0248,0.0172,0.0255,0.0271,0.0295,0.0347,0.0278,0.0379,0.0372,0.0522,0.0569,0.0545,0.0506,0.0546,0.0639,0.0652,0.0664,0.0632,0.0642,0.0522,0.0521,0.0521,0.052,0,0.0318,0.0349,0.0379,0.0423,0.0444,0.0496,0.0499,0.0534,0.0526,0.0548,0.0643,0.0617,0.0685,0.0684,0.0667,0.0778,0.0711,0.065,0.0581,0.0693,0.0653,0.066,0.0534,0.0531,0.0529,0.0527,0,0,0.0447,0.047,0.049,0.0534,0.0559,0.0598,0.0709,0.0801,0.0891,0.0873,0.0996,0.1039,0.098,0.1011,0.097,0.0957,0.0989,0.0848,0.0843,0.0815,0.0946,0.0891,0.0891,0.0924,0.0927,0.0929,0.0882,0,0.0589,0.0714,0.0706,0.0852,0.0911,0.0894,0.1008,0.1076,0.1102,0.1187,0.1164,0.124,0.1122,0.114,0.1117,0.1029,0.1016,0.1007,0.085,0.0846,0.0777,0.0902,0.0828,0.078,0.0888,0.0889,0.0889,0,0.0754,0.081,0.0961,0.1057,0.1086,0.1165,0.1315,0.1402,0.1495,0.1518,0.1559,0.1513,0.1548,0.1384,0.1297,0.1287,0.1149,0.1041,0.1035,0.0943,0.0806,0.0688,0.0787,0.0561,0.0899,0.0898,0.0898,0,0.0887,0.1007,0.1133,0.1163,0.1253,0.1341,0.1401,0.1509,0.1604,0.1713,0.1769,0.1776,0.1778,0.162,0.141,0.1352,0.1261,0.1151,0.0976,0.0968,0.0861,0.0841,0.0723,0.1087,0.1087,0.1087,0.1088,0,0.1046,0.1146,0.1192,0.1251,0.1418,0.1445,0.1626,0.1694,0.1806,0.1935,0.1922,0.2003,0.1828,0.1746,0.151,0.1288,0.1344,0.1042,0.0975,0.0911,0.0897,0.0656,0.0545,0.1086,0.1086,0.1086,0.1087,0,0.1157,0.1194,0.1323,0.1426,0.1469,0.1576,0.1715,0.1839,0.1933,0.2091,0.2132,0.2192,0.211,0.1904,0.1679,0.1439,0.108,0.111,0.1047,0.0975,0.0583,0.0485,0.0357,0.0274,0.0919,0.0917,0.0916,0,0.1216,0.1293,0.1418,0.1489,0.1529,0.1672,0.178,0.1895,0.2014,0.2195,0.2279,0.2299,0.2316,0.2001,0.1621,0.126,0.1058,0.0944,0.0832,0.06,0.044,0.0389,0.0326,0.0735,0.0733,0.0731,0.0729,0,0.131,0.1348,0.1433,0.1571,0.1683,0.1829,0.1971,0.2083,0.2231,0.2364,0.2512,0.2543,0.2296,0.1958,0.1515,0.1232,0.0789,0.0889,0.0668,0.0333,0.0254,0.0128,0.0714,0.0711,0.0713,0.0714,0.0715,0.0716,0.1354,0.1424,0.152,0.1659,0.1787,0.1951,0.2074,0.223,0.2417,0.2608,0.2639,0.2709,0.2201,0.1607,0.1266,0.0567,0.0637,0.0318,0.0229,0.0211,0.0107,0.0665,0.0573,0.0574,0.0575,0.0576,0.0576,0,0.1391,0.147,0.1599,0.1762,0.1899,0.1966,0.2183,0.2304,0.2503,0.2687,0.2793,0.252,0.1915,0.132,0.0381,-0.0039,-0.0172,-0.0255,-0.0368,-0.0392,0.01,0.0064,-0.0163,-0.0163,-0.0163,-0.0162,-0.0162,-0.0162,0.1405,0.1518,0.1591,0.1811,0.1932,0.2124,0.2241,0.2413,0.257,0.2717,0.2733,0.2725,0.2127,0.0583,-0.0441,-0.0646,-0.087,-0.0928,-0.1001,-0.0729,-0.0683,-0.064,-0.07,-0.1083,-0.1084,-0.147,-0.1474,-0.1478]}],[{"header":{"parameterUnit":"m.s-1","parameterCategory":2,"la1":30.2991,"la2":30.254,"lo1":-89.0895,"lo2":-89.0444,"dy":0.0017,"dx":0.0017,"nx":28,"ny":28,"refTime":"2024-08-15T03:00:00:Z","depth":"2","parameterNumber":2,"parameterNumberName":"U-component_of_CURRENTS"},"data":[0,0,0,0,0,0,0,0,0,0,0,0,0,0,0,0,0,0,0,0,0,0,0,0,0,0,0,0,0,0,0,0,0,0,0,0,0,0,0,0,0,0,0,0,0,0,0,0,0,0,0,0,0,0,0,0,0,0,0.2635,0.2636,0,0.2643,0.2642,0.2641,0.2627,0.2628,0.2629,0.263,0.2665,0.2665,0.2665,0,0,0,0,0,0,0,0,0,0,0,0,0,0.2545,0.2546,0.2634,0.2636,0.2637,0.2643,0.2642,0.2641,0.2627,0.2628,0.2629,0.263,0.2665,0.2665,0.2665,0,0,0,0,0,0,0,0,0,0,0,0,0,0.2558,0.2546,0.2634,0.2642,0.2643,0.2643,0.2642,0.264,0.2627,0.2628,0.2629,0.263,0.2664,0.2665,0.2665,0.2642,0,0,0.2666,0.2666,0,0,0,0,0,0,0,0,0.2558,0.256,0.2639,0.2641,0.2643,0.2648,0.2624,0.2647,0.2626,0.2618,0.263,0.2631,0.267,0.267,0.2648,0.2643,0.2645,0.2666,0.2666,0.2666,0.2666,0,0,0,0,0,0,0,0.2557,0.2559,0.2623,0.2641,0.2643,0.2625,0.2626,0.2626,0.2626,0.2619,0.2621,0.2644,0.2669,0.2647,0.2649,0.2645,0.2666,0.2666,0.2666,0.2666,0.2784,0.2787,0,0,0,0,0,0,0.2586,0.2559,0.2623,0.2625,0.2619,0.2626,0.2628,0.2633,0.2626,0.263,0.2643,0.2644,0.2646,0.2649,0.265,0.2777,0.2666,0.2666,0.2666,0.2781,0.2785,0.2788,0,0,0,0,0,0,0.2584,0.2591,0.2623,0.2604,0.2609,0.2628,0.2633,0.2633,0.2643,0.2647,0.2649,0.2659,0.2648,0.265,0.2675,0.2773,0.2666,0.2667,0.2778,0.2782,0.2786,0.2931,0,0,0,0,0,0,0.258,0.2589,0.2602,0.2606,0.2612,0.2651,0.2634,0.2633,0.266,0.2661,0.266,0.2663,0.2649,0.2675,0.2676,0.2771,0.2667,0.2774,0.278,0.2785,0.2923,0.294,0.2955,0,0,0,0,0,0.2577,0.2612,0.2602,0.2611,0.2629,0.2654,0.2653,0.2661,0.266,0.267,0.2669,0.2664,0.2713,0.2676,0.2676,0.2775,0.2771,0.2778,0.2785,0.2916,0.2937,0.2955,0,0,0,0,0,0,0.2559,0.2615,0.2604,0.2646,0.2657,0.2657,0.2691,0.2677,0.2678,0.2693,0.2673,0.2675,0.2771,0.2726,0.2686,0.2826,0.2754,0.2761,0.2854,0.2873,0.2889,0.2935,0.2667,0,0,0,0,0,0.2566,0.2611,0.2636,0.2659,0.2689,0.2685,0.2699,0.2699,0.2707,0.2708,0.2712,0.2731,0.2791,0.279,0.2835,0.2858,0.2834,0.2931,0.2947,0.2961,0.3,0.3037,0.306,0.281,0.281,0.281,0,0,0.258,0.2599,0.2634,0.266,0.2679,0.2732,0.2695,0.2738,0.2785,0.2715,0.2785,0.2808,0.2821,0.2897,0.2931,0.2864,0.301,0.297,0.2982,0.3013,0.3047,0.3071,0.3093,0.2815,0.2814,0.2813,0,0,0.2614,0.2639,0.2694,0.2722,0.2765,0.2777,0.28,0.2823,0.2849,0.2896,0.2904,0.2963,0.2997,0.3035,0.3058,0.3176,0.3131,0.3198,0.3276,0.3311,0.3332,0.3351,0.3308,0.3322,0.3162,0.3163,0.3163,0,0.2655,0.268,0.2708,0.2758,0.2812,0.2811,0.2882,0.2908,0.2927,0.2972,0.2952,0.3079,0.3084,0.32,0.3248,0.3224,0.3197,0.3199,0.3333,0.3351,0.3368,0.332,0.3333,0.317,0.317,0.3169,0.3168,0,0.2701,0.275,0.2794,0.2869,0.2918,0.2982,0.3043,0.308,0.3118,0.3153,0.3292,0.3292,0.3358,0.3384,0.3352,0.3486,0.3414,0.3384,0.3284,0.3402,0.3342,0.3354,0.3182,0.3179,0.3176,0.3175,0,0,0.277,0.2833,0.2849,0.2879,0.2994,0.3017,0.3145,0.3246,0.3339,0.3381,0.3481,0.3602,0.3605,0.3631,0.3607,0.3622,0.3696,0.3545,0.3543,0.3502,0.372,0.3591,0.3589,0.3682,0.3686,0.369,0.3614,0,0.2823,0.2886,0.2941,0.3037,0.3091,0.3169,0.3294,0.3383,0.3473,0.356,0.3608,0.3729,0.3699,0.3737,0.3758,0.3714,0.374,0.3716,0.3614,0.361,0.3483,0.3605,0.3367,0.3277,0.3625,0.3626,0.3628,0,0.286,0.289,0.2992,0.3101,0.3151,0.3227,0.3404,0.3515,0.3673,0.3738,0.3844,0.3901,0.3955,0.3909,0.3916,0.3893,0.3852,0.3806,0.3801,0.3651,0.3506,0.3225,0.3283,0.3645,0.3644,0.3642,0.3641,0,0.2812,0.2929,0.2995,0.3039,0.319,0.3267,0.3365,0.3567,0.3681,0.3848,0.3915,0.4027,0.4018,0.404,0.3947,0.3953,0.3896,0.3878,0.3738,0.3722,0.349,0.3449,0.3953,0.3953,0.3954,0.3954,0.3954,0,0.2827,0.2878,0.2964,0.2995,0.3104,0.3242,0.3419,0.3528,0.3723,0.3814,0.3992,0.4005,0.406,0.4028,0.3979,0.3847,0.3923,0.3794,0.3729,0.3526,0.3491,0.3793,0.3775,0.3951,0.3951,0.3952,0.3953,0,0.2776,0.2832,0.2887,0.3022,0.3078,0.3142,0.3372,0.3479,0.37,0.3792,0.3847,0.3965,0.3921,0.395,0.3901,0.3839,0.3769,0.3718,0.3436,0.3344,0.3567,0.3558,0.3597,0.3593,0.3589,0.3586,0.3583,0,0.2731,0.2765,0.2875,0.288,0.2942,0.3074,0.3175,0.3409,0.3497,0.37,0.3669,0.3757,0.3711,0.3615,0.3568,0.3517,0.3614,0.3267,0.3294,0.3615,0.3547,0.3544,0.354,0.3006,0.2999,0.2993,0.2988,0,0.2645,0.271,0.2749,0.2808,0.2847,0.2925,0.305,0.3108,0.3338,0.3396,0.3384,0.3404,0.3387,0.3218,0.3222,0.3153,0.3272,0.3148,0.3564,0.3145,0.3056,0.299,0.3006,0.2936,0.2942,0.2946,0.2948,0.295,0.2571,0.2574,0.2648,0.2702,0.2737,0.2754,0.2768,0.2842,0.2899,0.2947,0.3009,0.295,0.3001,0.2885,0.2768,0.273,0.2963,0.2872,0.2891,0.2916,0.2873,0.2785,0.2601,0.2604,0.2607,0.2609,0.2611,0,0.2472,0.2516,0.2536,0.2545,0.2535,0.2643,0.2677,0.2622,0.2547,0.2585,0.2569,0.2372,0.2322,0.239,0.228,0.2299,0.2295,0.2198,0.2192,0.2245,0.2292,0.2219,0.1772,0.177,0.1767,0.1764,0,0,0.2389,0.2375,0.2409,0.2351,0.2395,0.2324,0.2313,0.2191,0.2179,0.2024,0.2001,0.2195,0.2322,0.2016,0.199,0.1862,0.2028,0.1785,0.2464,0.2508,0.2551,0.2692,0.2641,0,0,0,0,0]},{"header":{"parameterUnit":"m.s-1","parameterCategory":2,"la1":30.2991,"la2":30.254,"lo1":-89.0895,"lo2":-89.0444,"dy":0.0017,"dx":0.0017,"nx":28,"ny":28,"refTime":"2024-08-15T03:00:00:Z","depth":"2","parameterNumber":3,"parameterNumberName":"V-component_of_CURRENTS"},"data":[0,0,0,0,0,0,0,0,0,0,0,0,0,0,0,0,0,0,0,0,0,0,0,0,0,0,0,0,0,0,0,0,0,0,0,0,0,0,0,0,0,0,0,0,0,0,0,0,0,0,0,0,0,0,0,0,0,0,-0.0074,-0.0075,0,-0.0104,-0.0104,-0.0104,-0.0119,-0.0119,-0.012,-0.012,-0.0158,-0.0159,-0.016,0,0,0,0,0,0,0,0,0,0,0,0,0,-0.0045,-0.0045,-0.0074,-0.0075,-0.0075,-0.0104,-0.0104,-0.0104,-0.0119,-0.012,-0.012,-0.012,-0.0158,-0.0159,-0.016,0,0,0,0,0,0,0,0,0,0,0,0,0,-0.0062,-0.0045,-0.0074,-0.0088,-0.009,-0.0104,-0.0104,-0.0104,-0.0119,-0.012,-0.012,-0.012,-0.0157,-0.0159,-0.016,-0.016,0,0,-0.0163,-0.0164,0,0,0,0,0,0,0,0,-0.0061,-0.0063,-0.0085,-0.0087,-0.0089,-0.011,-0.0108,-0.0124,-0.0119,-0.0106,-0.012,-0.012,-0.0144,-0.0146,-0.0148,-0.0162,-0.0164,-0.0164,-0.0164,-0.0165,-0.0165,0,0,0,0,0,0,0,-0.006,-0.0062,-0.0084,-0.0086,-0.0088,-0.0098,-0.01,-0.0111,-0.0121,-0.0107,-0.0109,-0.0115,-0.0145,-0.0147,-0.0149,-0.0164,-0.0164,-0.0165,-0.0165,-0.0166,-0.0167,-0.0166,0,0,0,0,0,0,-0.006,-0.0061,-0.0083,-0.0085,-0.0078,-0.0098,-0.0101,-0.0101,-0.0121,-0.0125,-0.0115,-0.0116,-0.0144,-0.0147,-0.015,-0.0119,-0.0165,-0.0166,-0.0167,-0.0167,-0.0167,-0.0166,0,0,0,0,0,0,-0.0059,-0.0061,-0.0082,-0.0076,-0.0079,-0.0098,-0.0099,-0.0102,-0.0107,-0.0127,-0.0131,-0.0118,-0.0145,-0.0149,-0.0152,-0.0122,-0.0166,-0.0168,-0.0168,-0.0167,-0.0166,-0.0077,0,0,0,0,0,0,-0.0058,-0.006,-0.006,-0.0075,-0.008,-0.0085,-0.0099,-0.0102,-0.0112,-0.0113,-0.0131,-0.0135,-0.0145,-0.015,-0.0154,-0.0124,-0.0168,-0.0169,-0.0168,-0.0167,-0.0081,-0.0073,-0.0067,0,0,0,0,0,-0.0056,-0.0045,-0.0059,-0.0062,-0.0078,-0.0085,-0.0087,-0.0101,-0.0111,-0.0108,-0.0118,-0.0134,-0.0144,-0.0151,-0.0155,-0.0125,-0.017,-0.0168,-0.0167,-0.0084,-0.0075,-0.0067,0,0,0,0,0,0,-0.0022,-0.0046,-0.0062,-0.0057,-0.0072,-0.0088,-0.0086,-0.0101,-0.0106,-0.0108,-0.0128,-0.0131,-0.0115,-0.0142,-0.0149,-0.0123,-0.0159,-0.0158,-0.0095,-0.0086,-0.0079,-0.0053,-0.0169,0,0,0,0,0,-0.0019,-0.0017,-0.0046,-0.0037,-0.0048,-0.007,-0.0076,-0.0087,-0.0096,-0.0099,-0.0111,-0.012,-0.0111,-0.0118,-0.0117,-0.0114,-0.0153,-0.0099,-0.0091,-0.0085,-0.0068,-0.0099,-0.0092,-0.0161,-0.0161,-0.0161,0,0,-0.0004,-0.0014,-0.0015,-0.0031,-0.0044,-0.0041,-0.0073,-0.0077,-0.0067,-0.0103,-0.0087,-0.0091,-0.0103,-0.0082,-0.008,-0.0104,-0.0093,-0.0083,-0.0077,-0.0063,-0.0096,-0.009,-0.0084,-0.016,-0.016,-0.016,0,0,0.0034,0.0016,0.0025,0.0014,-0.0007,-0.0018,-0.002,-0.004,-0.0044,-0.0035,-0.0045,-0.0033,-0.0041,-0.003,-0.0028,0.0013,-0.0044,0.0005,0.0055,0.0025,0.0031,0.0035,-0.0031,-0.0033,-0.0002,-0.0002,-0.0001,0,0.0049,0.0062,0.0029,0.0036,0.0038,-0.0004,0.0012,0.0003,-0.0011,0.0001,-0.002,0.0012,-0.0006,0.0041,0.0055,0.0034,-0.0013,0.0027,0.0036,0.004,0.0043,-0.0026,-0.003,0.0003,0.0002,0.0002,0.0002,0,0.0085,0.0099,0.0107,0.0104,0.0101,0.011,0.0086,0.0083,0.0074,0.0078,0.0116,0.0104,0.0131,0.0121,0.0101,0.0128,0.0076,0.0058,0.0018,0.0055,-0.0021,-0.0026,0.0009,0.0008,0.0006,0.0005,0,0,0.0111,0.0129,0.0131,0.0141,0.0138,0.0134,0.0156,0.0168,0.0188,0.0188,0.0227,0.0251,0.0255,0.0258,0.0238,0.0201,0.017,0.0138,0.0134,0.0078,0.0069,0.0027,0.0017,0.0147,0.0147,0.0147,-0.0003,0,0.015,0.017,0.0188,0.0225,0.0224,0.022,0.0249,0.0253,0.0258,0.0279,0.0284,0.0327,0.0305,0.0326,0.0295,0.0207,0.0164,0.021,0.0035,0.003,-0.0005,0.0014,0.005,-0.008,-0.0008,-0.0009,-0.001,0,0.0155,0.0182,0.0209,0.0267,0.0272,0.0303,0.0329,0.0368,0.0392,0.0384,0.043,0.0443,0.0445,0.04,0.0295,0.032,0.0214,0.0126,0.0118,0.0052,-0.0019,-0.0102,-0.0092,-0.0019,-0.0018,-0.0017,-0.0017,0,0.0122,0.019,0.0214,0.0225,0.0281,0.0316,0.0373,0.0405,0.0447,0.0479,0.0478,0.051,0.0486,0.0413,0.0265,0.0281,0.0086,0.0088,-0.0049,-0.0056,-0.007,-0.0078,0.0007,0.0007,0.0008,0.0008,0.0009,0,0.0119,0.0144,0.0202,0.0213,0.028,0.033,0.0415,0.0441,0.051,0.0568,0.056,0.0576,0.048,0.038,0.027,0.0083,0.0099,-0.0033,-0.0084,-0.0043,-0.0046,-0.0021,-0.0022,0.0002,0.0004,0.0005,0.0006,0,0.0056,0.0087,0.0136,0.0225,0.0254,0.0311,0.0456,0.052,0.0549,0.0611,0.0635,0.0594,0.0483,0.0344,0.0166,0.0056,-0.0092,-0.0172,-0.0137,-0.0178,-0.0214,-0.0209,-0.0294,-0.0297,-0.0299,-0.0301,-0.0302,0,0.0028,0.0036,0.0125,0.0181,0.0236,0.0337,0.0412,0.0514,0.0584,0.0637,0.0655,0.0581,0.0554,0.0247,0.0054,-0.0153,-0.0175,-0.0299,-0.0228,-0.0198,-0.0239,-0.0231,-0.0223,-0.0236,-0.0237,-0.0238,-0.0238,0,0.0028,0.0046,0.0105,0.0185,0.0275,0.0381,0.0505,0.0565,0.0687,0.0723,0.0786,0.0799,0.0514,0.034,-0.0003,-0.0136,-0.0241,-0.0318,-0.0304,-0.0155,-0.0151,-0.0189,-0.0182,-0.0244,-0.0243,-0.0243,-0.0243,-0.0242,0.0054,0.0089,0.0158,0.0248,0.034,0.0459,0.057,0.0693,0.0833,0.0949,0.0911,0.0909,0.0649,0.0279,0.0002,-0.03,-0.0273,-0.0355,-0.0349,-0.0343,-0.0299,-0.0297,-0.0412,-0.0413,-0.0413,-0.0413,-0.0414,0,0.01,0.014,0.0229,0.0357,0.0464,0.0489,0.065,0.0775,0.0958,0.1037,0.111,0.0905,0.067,0.0362,-0.0067,-0.0326,-0.0322,-0.0416,-0.0336,-0.033,-0.0324,-0.0274,-0.0384,-0.0385,-0.0385,-0.0386,0,0,0.0135,0.0225,0.0272,0.0458,0.0536,0.0689,0.0791,0.0957,0.1061,0.1185,0.1199,0.1153,0.0782,0.049,0.0124,-0.0124,-0.0164,-0.018,-0.0178,-0.0035,-0.0026,-0.0271,-0.0186,0,0,0,0,0]}],[{"header":{"parameterUnit":"m.s-1","parameterCategory":2,"la1":30.2991,"la2":30.254,"lo1":-89.0895,"lo2":-89.0444,"dy":0.0017,"dx":0.0017,"nx":28,"ny":28,"refTime":"2024-08-15T03:00:00:Z","depth":"4","parameterNumber":2,"parameterNumberName":"U-component_of_CURRENTS"},"data":[0,0,0,0,0,0,0,0,0,0,0,0,0,0,0,0,0,0,0,0,0,0,0,0,0,0,0,0,0,0,0,0,0,0,0,0,0,0,0,0,0,0,0,0,0,0,0,0,0,0,0,0,0,0,0,0,0,0,0.1315,0.1316,0,0.1408,0.1409,0.141,0.1465,0.1465,0.1466,0.1466,0.1566,0.1568,0.1571,0,0,0,0,0,0,0,0,0,0,0,0,0,0.1195,0.1197,0.1315,0.1317,0.1318,0.1408,0.1409,0.141,0.1465,0.1465,0.1466,0.1466,0.1566,0.1568,0.1571,0,0,0,0,0,0,0,0,0,0,0,0,0,0.1261,0.1198,0.1315,0.1358,0.1363,0.1407,0.1409,0.141,0.1464,0.1465,0.1466,0.1466,0.1565,0.1568,0.1571,0.1578,0,0,0.1582,0.1583,0,0,0,0,0,0,0,0,0.1258,0.1265,0.135,0.1355,0.1361,0.1427,0.1404,0.1467,0.1464,0.1423,0.1466,0.1467,0.1522,0.1528,0.1541,0.1583,0.1587,0.1582,0.1584,0.1585,0.1586,0,0,0,0,0,0,0,0.1253,0.1262,0.135,0.1352,0.1358,0.1376,0.1386,0.1416,0.1466,0.1427,0.1432,0.1446,0.1524,0.1538,0.1544,0.1589,0.1582,0.1585,0.1587,0.1588,0.1753,0.1755,0,0,0,0,0,0,0.1245,0.1258,0.1347,0.1353,0.1312,0.1378,0.1388,0.1403,0.1465,0.1476,0.1445,0.1448,0.1531,0.154,0.1548,0.1666,0.1585,0.1588,0.159,0.175,0.1753,0.1756,0,0,0,0,0,0,0.1242,0.1252,0.1343,0.1309,0.1322,0.1379,0.1395,0.1405,0.1448,0.1479,0.149,0.1481,0.1532,0.1543,0.1606,0.1666,0.159,0.1593,0.1748,0.1751,0.1754,0.1834,0,0,0,0,0,0,0.1238,0.125,0.127,0.1308,0.1324,0.1388,0.1395,0.1406,0.1454,0.146,0.1514,0.1522,0.1534,0.1601,0.161,0.1669,0.1596,0.1745,0.1749,0.1753,0.1829,0.184,0.185,0,0,0,0,0,0.1234,0.1255,0.127,0.1282,0.1344,0.139,0.14,0.144,0.1456,0.148,0.1522,0.1522,0.1636,0.1606,0.1615,0.1677,0.1742,0.1748,0.1753,0.1824,0.1838,0.185,0,0,0,0,0,0,0.1217,0.1264,0.1281,0.1317,0.1359,0.14,0.1435,0.1456,0.1507,0.1526,0.1546,0.1558,0.1631,0.1643,0.1609,0.1738,0.1692,0.1699,0.1743,0.1756,0.1766,0.1762,0.1598,0,0,0,0,0,0.122,0.1254,0.1294,0.1332,0.1353,0.1398,0.1426,0.1456,0.1501,0.1526,0.1567,0.1615,0.1656,0.1696,0.1726,0.1799,0.1784,0.1848,0.1858,0.1867,0.1871,0.1896,0.1908,0.1773,0.1773,0.1773,0,0,0.1229,0.126,0.1282,0.1332,0.1371,0.1415,0.1418,0.1476,0.1519,0.1528,0.1614,0.1646,0.1678,0.1757,0.1794,0.1782,0.1898,0.1874,0.1881,0.188,0.1902,0.1915,0.1927,0.1777,0.1776,0.1775,0,0,0.1261,0.1289,0.1326,0.1362,0.1424,0.145,0.1471,0.1533,0.1568,0.164,0.1662,0.1736,0.1799,0.185,0.1875,0.1964,0.1939,0.198,0.2051,0.2076,0.2087,0.2096,0.2089,0.2097,0.2003,0.2003,0.2004,0,0.1264,0.1314,0.1346,0.139,0.1423,0.1468,0.1512,0.1556,0.1635,0.1668,0.1679,0.1809,0.1844,0.1943,0.1983,0.1991,0.1981,0.1999,0.2089,0.2098,0.2106,0.2096,0.2104,0.2008,0.2007,0.2007,0.2007,0,0.1324,0.1364,0.1392,0.1459,0.15,0.1547,0.1601,0.166,0.1706,0.1745,0.185,0.1914,0.1994,0.2029,0.2036,0.2133,0.2098,0.2082,0.2051,0.2124,0.2109,0.2116,0.2014,0.2013,0.2011,0.201,0,0,0.1301,0.1408,0.1416,0.1449,0.1534,0.1566,0.1651,0.1718,0.1765,0.1866,0.1932,0.2051,0.2095,0.2128,0.2172,0.2216,0.2274,0.2187,0.2186,0.217,0.2305,0.2176,0.217,0.227,0.2272,0.2274,0.2269,0,0.1327,0.14,0.1459,0.1532,0.1563,0.1634,0.1695,0.177,0.1832,0.1907,0.2004,0.2079,0.213,0.218,0.2244,0.2258,0.2296,0.2275,0.2245,0.2243,0.2113,0.2176,0.228,0.2273,0.2275,0.2276,0.2277,0,0.1335,0.1388,0.1455,0.154,0.1562,0.1627,0.1717,0.1783,0.1893,0.1944,0.2065,0.2113,0.2243,0.2242,0.2349,0.233,0.233,0.2333,0.2333,0.2188,0.2128,0.2188,0.2288,0.2287,0.2286,0.2285,0.2285,0,0.125,0.1363,0.1411,0.1445,0.1564,0.1622,0.1695,0.18,0.1856,0.1977,0.2032,0.2165,0.2253,0.2292,0.2348,0.2341,0.2406,0.2388,0.2273,0.2262,0.2341,0.2331,0.2431,0.2431,0.2431,0.2431,0.2431,0,0.1203,0.1244,0.1387,0.1411,0.1485,0.1585,0.1669,0.1753,0.1874,0.1942,0.2063,0.2146,0.2269,0.2329,0.2344,0.2337,0.2414,0.2287,0.226,0.2374,0.2369,0.2345,0.2335,0.2431,0.2431,0.2431,0.2431,0,0.1092,0.118,0.1249,0.1395,0.1443,0.1502,0.1663,0.1715,0.1845,0.1942,0.1986,0.2152,0.2237,0.2313,0.2369,0.2331,0.2318,0.2286,0.2395,0.2373,0.2151,0.2146,0.2146,0.2141,0.2138,0.2134,0.2132,0,0.1045,0.1066,0.122,0.1273,0.1354,0.1464,0.1528,0.1681,0.1743,0.1937,0.197,0.2106,0.2199,0.2183,0.2272,0.2264,0.2251,0.2208,0.2196,0.2152,0.2127,0.2127,0.2127,0.2126,0.2125,0.2124,0.2123,0,0.0969,0.1031,0.1098,0.1195,0.1285,0.1367,0.1484,0.1514,0.1683,0.1815,0.1905,0.1958,0.2052,0.2112,0.2119,0.2119,0.2214,0.2169,0.2176,0.2165,0.2128,0.2107,0.2111,0.211,0.2112,0.2113,0.2114,0,0.0926,0.0952,0.104,0.1121,0.1213,0.1256,0.133,0.1423,0.1503,0.1712,0.1741,0.1897,0.2037,0.2037,0.2049,0.2034,0.2012,0.1935,0.1954,0.197,0.1918,0.1847,0.1723,0,0,0,0,0,0.0884,0.09,0.0962,0.1041,0.1119,0.1176,0.1292,0.1368,0.1524,0.1538,0.1637,0.1712,0.1778,0.1866,0.1817,0.1968,0.2007,0.1901,0.1924,0.2038,0.2053,0.2012,0,0,0,0,0,0,0.0854,0.0905,0.0929,0.0956,0.0989,0.1064,0.1132,0.124,0.1261,0.1426,0.1475,0.1602,0.1691,0.1787,0.1785,0.1805,0.1781,0.1995,0.199,0.203,0.2043,0.2055,0.2018,0,0,0,0,0]},{"header":{"parameterUnit":"m.s-1","parameterCategory":2,"la1":30.2991,"la2":30.254,"lo1":-89.0895,"lo2":-89.0444,"dy":0.0017,"dx":0.0017,"nx":28,"ny":28,"refTime":"2024-08-15T03:00:00:Z","depth":"4","parameterNumber":3,"parameterNumberName":"V-component_of_CURRENTS"},"data":[0,0,0,0,0,0,0,0,0,0,0,0,0,0,0,0,0,0,0,0,0,0,0,0,0,0,0,0,0,0,0,0,0,0,0,0,0,0,0,0,0,0,0,0,0,0,0,0,0,0,0,0,0,0,0,0,0,0,0.0042,0.0041,0,0.0001,0.0001,0.0001,-0.0014,-0.0014,-0.0014,-0.0014,-0.0075,-0.0077,-0.0078,0,0,0,0,0,0,0,0,0,0,0,0,0,0.0072,0.0072,0.0042,0.0041,0.0041,0.0002,0.0001,0.0001,-0.0014,-0.0014,-0.0014,-0.0014,-0.0074,-0.0076,-0.0078,0,0,0,0,0,0,0,0,0,0,0,0,0,0.0049,0.0072,0.0042,0.0028,0.0026,0.0002,0.0001,0.0,-0.0014,-0.0014,-0.0014,-0.0014,-0.0074,-0.0076,-0.0079,-0.0095,0,0,-0.0086,-0.0087,0,0,0,0,0,0,0,0,0.0051,0.0048,0.003,0.0029,0.0027,-0.0002,-0.0011,-0.0033,-0.0014,0.0002,-0.0014,-0.0014,-0.0053,-0.0057,-0.0063,-0.0098,-0.0101,-0.0086,-0.0088,-0.0089,-0.009,0,0,0,0,0,0,0,0.0052,0.005,0.0027,0.003,0.0027,0.0012,0.0009,-0.0015,-0.0025,0.0001,-0.0001,-0.0007,-0.0054,-0.0061,-0.0065,-0.0101,-0.0086,-0.0089,-0.009,-0.0091,-0.0173,-0.0174,0,0,0,0,0,0,0.0057,0.0051,0.0028,0.0026,0.0038,0.0011,0.0008,0.0008,-0.0024,-0.0029,-0.0007,-0.0008,-0.0057,-0.0062,-0.0067,-0.0097,-0.0089,-0.0091,-0.0093,-0.0172,-0.0173,-0.0174,0,0,0,0,0,0,0.0058,0.0055,0.003,0.0036,0.0032,0.0011,0.001,0.0007,-0.0002,-0.003,-0.0035,-0.0012,-0.0057,-0.0064,-0.0089,-0.0099,-0.0092,-0.0095,-0.0172,-0.0173,-0.0174,-0.0152,0,0,0,0,0,0,0.0059,0.0056,0.0059,0.0037,0.0032,0.0016,0.001,0.0006,-0.0006,-0.0007,-0.0037,-0.0042,-0.0057,-0.0085,-0.0091,-0.0103,-0.0097,-0.0171,-0.0172,-0.0173,-0.0152,-0.0152,-0.0152,0,0,0,0,0,0.006,0.0061,0.0059,0.0056,0.0036,0.0016,0.0012,-0.0003,-0.0006,-0.001,-0.0029,-0.0041,-0.0098,-0.0087,-0.0094,-0.0107,-0.017,-0.0172,-0.0173,-0.0152,-0.0152,-0.0152,0,0,0,0,0,0,0.0075,0.0058,0.0056,0.0052,0.0037,0.0013,0.0005,-0.0003,-0.0021,-0.0022,-0.0046,-0.0053,-0.0081,-0.0098,-0.0086,-0.0136,-0.0138,-0.0141,-0.0119,-0.012,-0.012,-0.0121,-0.0099,0,0,0,0,0,0.008,0.0077,0.0058,0.0055,0.0046,0.0027,0.0017,0.0009,-0.0011,-0.0019,-0.0041,-0.0067,-0.0094,-0.0108,-0.0134,-0.0158,-0.0177,-0.0173,-0.0174,-0.0174,-0.0181,-0.0214,-0.0217,-0.0179,-0.0179,-0.0179,0,0,0.0081,0.0076,0.0072,0.0058,0.0044,0.0028,0.0021,0.0007,-0.0007,-0.0024,-0.0049,-0.0069,-0.0101,-0.0128,-0.0143,-0.0143,-0.0194,-0.0176,-0.0175,-0.0183,-0.0216,-0.0219,-0.0222,-0.018,-0.018,-0.018,0,0,0.0079,0.0081,0.0072,0.0061,0.0043,0.0032,0.0028,0.0004,-0.0007,-0.0031,-0.0049,-0.0072,-0.0114,-0.0135,-0.0153,-0.0172,-0.0195,-0.0185,-0.0187,-0.0218,-0.0221,-0.0224,-0.0246,-0.0251,-0.0184,-0.0184,-0.0184,0,0.008,0.0078,0.0066,0.0054,0.005,0.0033,0.0024,0.0004,-0.0024,-0.0034,-0.0039,-0.0098,-0.0119,-0.0155,-0.0162,-0.0172,-0.0193,-0.0178,-0.0217,-0.022,-0.0224,-0.0246,-0.0252,-0.0183,-0.0183,-0.0183,-0.0183,0,0.0066,0.0068,0.0062,0.0047,0.0037,0.0031,0.0005,-0.0008,-0.002,-0.0041,-0.0075,-0.0103,-0.0135,-0.0149,-0.0163,-0.0201,-0.0208,-0.0211,-0.0211,-0.0226,-0.0248,-0.0255,-0.0182,-0.0182,-0.0182,-0.0183,0,0,0.0062,0.0055,0.0054,0.0066,0.0041,0.004,0.001,-0.0011,-0.0016,-0.0058,-0.0072,-0.0125,-0.0136,-0.0157,-0.0176,-0.0207,-0.0243,-0.0221,-0.0223,-0.0235,-0.0311,-0.0288,-0.0293,-0.0255,-0.0256,-0.0257,-0.0313,0,0.0059,0.0059,0.0047,0.0054,0.006,0.0042,0.0026,0.0002,-0.002,-0.0041,-0.0087,-0.0107,-0.0141,-0.0142,-0.0186,-0.0227,-0.0262,-0.0228,-0.0303,-0.0305,-0.0276,-0.0301,-0.0261,-0.0318,-0.032,-0.0321,-0.0322,0,0.0053,0.0063,0.0072,0.0093,0.0092,0.0087,0.0086,0.0067,0.0019,0.0003,-0.0042,-0.0076,-0.0133,-0.0148,-0.0248,-0.0226,-0.0272,-0.0308,-0.0311,-0.0304,-0.0295,-0.0305,-0.0334,-0.0333,-0.0332,-0.0331,-0.0331,0,0.009,0.0089,0.0113,0.0114,0.0117,0.0121,0.0116,0.0081,0.0087,0.0033,0.0038,-0.0053,-0.0064,-0.0163,-0.0245,-0.0249,-0.0348,-0.0356,-0.0383,-0.0381,-0.0392,-0.0389,-0.0428,-0.0428,-0.0428,-0.0428,-0.0428,0,0.0112,0.0134,0.0137,0.0156,0.0189,0.0167,0.0192,0.017,0.015,0.0165,0.0072,0.0074,-0.0067,-0.0139,-0.024,-0.0331,-0.0346,-0.0393,-0.0399,-0.0381,-0.0376,-0.0397,-0.0392,-0.043,-0.043,-0.0429,-0.0429,0,0.0159,0.0157,0.0191,0.0202,0.0214,0.0236,0.026,0.0273,0.0247,0.0264,0.0255,0.0174,0.0075,-0.0068,-0.0208,-0.0288,-0.0397,-0.0422,-0.0388,-0.039,-0.0413,-0.0407,-0.0469,-0.0468,-0.0468,-0.0468,-0.0468,0,0.0182,0.0206,0.024,0.0263,0.0273,0.0305,0.0331,0.0324,0.0344,0.0334,0.035,0.0267,0.0195,0.0015,-0.0151,-0.0354,-0.0375,-0.0434,-0.0443,-0.042,-0.042,-0.0414,-0.0409,-0.0468,-0.0468,-0.0467,-0.0467,0,0.0227,0.0239,0.0266,0.032,0.0356,0.0404,0.0439,0.0471,0.0468,0.0455,0.0447,0.0338,0.0233,0.0051,-0.0103,-0.025,-0.0408,-0.0433,-0.0434,-0.0443,-0.0419,-0.0419,-0.0413,-0.0467,-0.0467,-0.0467,-0.0467,0,0.0256,0.0279,0.0314,0.0364,0.0417,0.0477,0.0496,0.0527,0.0551,0.0537,0.0539,0.0402,0.0321,0.0108,-0.0039,-0.0185,-0.0225,-0.0273,-0.0283,-0.0286,-0.0224,-0.0167,-0.0148,0,0,0,0,0,0.028,0.0308,0.0353,0.0404,0.0463,0.0498,0.0557,0.0568,0.0581,0.0595,0.057,0.0469,0.0261,0.0164,0.0025,-0.0057,-0.0268,-0.0226,-0.0332,-0.0463,-0.0464,-0.0422,0,0,0,0,0,0,0.0289,0.0335,0.0354,0.0434,0.0477,0.0548,0.0589,0.06,0.0606,0.0598,0.0493,0.0435,0.0228,0.0342,0.0023,-0.0024,-0.0109,-0.033,-0.0333,-0.0463,-0.0463,-0.0464,-0.0421,0,0,0,0,0]}]]